This demonstration page uses our WeatherBlox Daily Observations layout. Learn more.

41.86663, -103.66717

Hourly Observations for June 8, 2019

Temp ( °F °C ) Dew Point ( °F °C ) Humidity (%) Winds ( mph kmh ) Pressure ( in mb ) Visibility ( mi km ) Precip ( " mm )
12:53 am 00:53 Partly Cloudy 62 16.7 59 15 90 90 NW 12 19 29.68 1005 10 16.0934 0 0
1:53 am 01:53 Partly Cloudy with Light Rain 63 17.2 59 15 87 87 ENE 12 19 29.66 1004 10 16.0934 0 0.0254
2:53 am 02:53 Clear 61 16.1 57 13.9 87 87 E 8 13 29.66 1004 10 16.0934 0 0.0254
3:53 am 03:53 Clear 58 14.4 56 13.3 93 93 ESE 9 15 29.68 1005 10 16.0934 0 0
4:53 am 04:53 Clear 58 14.4 55 12.8 90 90 ESE 9 15 29.67 1005 10 16.0934 0 0
5:53 am 05:53 Sunny 57 13.9 56 13.3 96 96 undefined N/A 29.7 1006 10 16.0934 0 0
6:53 am 06:53 Sunny 62 16.7 59 15 90 90 SSE 6 9 29.73 1007 10 16.0934 0 0
7:53 am 07:53 Sunny 62 16.7 58 14.4 86 86 WNW 12 19 29.77 1008 10 16.0934 0 0
8:53 am 08:53 Mostly Sunny 59 15 53 11.7 81 81 NNW 20 31 29.84 1011 10 16.0934 0 0
9:53 am 09:53 Sunny 62 16.7 54 12.2 75 75 NW 21 33 29.85 1011 10 16.0934 0 0
10:53 am 10:53 Sunny 61 16.1 52 11.1 72 72 NW 15 24 29.87 1011 10 16.0934 0 0
11:53 am 11:53 Sunny 65 18.3 53 11.7 66 66 NNW 14 22 29.85 1011 10 16.0934 0 0
12:53 pm 12:53 Sunny 69 20.6 55 12.8 61 61 NNW 14 22 29.85 1011 10 16.0934 0 0
1:53 pm 13:53 Sunny 71 21.7 55 12.8 57 57 N 15 24 29.84 1011 10 16.0934 0 0
2:53 pm 14:53 Partly Cloudy 73 22.8 55 12.8 53 53 N 9 15 29.84 1011 10 16.0934 0 0
3:53 pm 15:53 Mostly Sunny 70 21.1 53 11.7 55 55 NNW 10 17 29.86 1011 10 16.0934 0 0
4:53 pm 16:53 Mostly Cloudy 67 19.4 53 11.7 61 61 NNW 7 11 29.91 1013 10 16.0934 0 0
5:53 pm 17:53 Cloudy with Light Rain 64 17.8 57 13.9 78 78 N 9 15 29.9 1013 7 11.26538 0.03 0.762
6:53 pm 18:53 Cloudy with Light Rain 63 17.2 56 13.3 78 78 N 10 17 29.91 1013 9 14.48406 0.01 0.254
7:53 pm 19:53 Mostly Cloudy with Light Rain 62 16.7 51 10.6 67 67 NNW 16 26 29.96 1015 10 16.0934 0 0.0254
8:53 pm 20:53 Cloudy 53 11.7 46 7.8 77 77 N 20 31 30.09 1019 10 16.0934 0 0.0254
9:53 pm 21:53 Cloudy 52 11.1 42 5.6 69 69 NNW 18 30 30.14 1021 10 16.0934 0 0
10:53 pm 22:53 Cloudy 50 10 42 5.6 74 74 NNW 12 19 30.2 1023 10 16.0934 0 0
11:53 pm 23:53 Cloudy 49 9.4 42 5.6 77 77 NNW 8 13 30.22 1023 10 16.0934 0 0.0254

Powered by AerisWeather